EW7961 Weather Reports


Display with metric or nautical units.
time (UTC)temp
F
wind
direction
speed
MPH
gust
MPH
rain 1hr
in
rain 24hr
in
rain mn
in
humidity
%
barometer
mb
20260506001023 48 329 2.0 5.0 0.08 0.34 0.08 92 1011.3
20260506000029 48 12 3.0 4.0 0.07 0.34 0.07 92 1011.5
20260505235017 48 327 3.0 5.0 0.07 0.34 0.07 92 1011.1
20260505234057 49 356 3.0 5.0 0.07 0.33 0.07 91 1010.9
20260505233017 49 341 4.0 6.0 0.07 0.33 0.07 91 1011.0
20260505232018 49 345 3.0 5.0 0.02 0.29 0.02 90 1010.9
20260505231023 49 4 3.0 6.0 0.00 0.26 0.00 89 1010.5
20260505230027 49 278 2.0 3.0 0.00 0.26 0.00 89 1010.7
20260505225027 50 3 3.0 4.0 0.00 0.26 0.26 89 1010.4
20260505224028 50 31 2.0 3.0 0.00 0.26 0.26 89 1009.9
20260505223028 49 357 3.0 4.0 0.00 0.26 0.26 89 1010.5
20260505222028 49 13 3.0 4.0 0.00 0.26 0.26 89 1010.5
20260505221018 49 355 3.0 7.0 0.00 0.26 0.26 89 1010.3
20260505220108 49 17 3.0 4.0 0.00 0.26 0.26 89 1010.3
20260505215028 49 310 3.0 4.0 0.01 0.26 0.26 90 1010.6
20260505214028 49 355 3.0 4.0 0.01 0.26 0.26 90 1010.6
20260505213109 49 349 3.0 5.0 0.01 0.26 0.26 90 1010.3
20260505212029 49 1 3.0 5.0 0.01 0.26 0.26 90 1010.8
20260505211029 49 317 3.0 4.0 0.01 0.26 0.26 89 1011.2
20260505210028 50 352 3.0 5.0 0.02 0.26 0.26 88 1011.2
20260505205018 50 14 4.0 8.0 0.01 0.26 0.26 87 1011.2
20260505204018 50 15 4.0 6.0 0.01 0.25 0.25 87 1011.0
20260505203109 50 318 3.0 4.0 0.00 0.25 0.25 86 1010.8
20260505202029 50 318 2.0 4.0 0.00 0.25 0.25 85 1011.0
20260505201019 51 340 3.0 5.0 0.00 0.25 0.25 83 1011.3
20260505200059 51 314 4.0 6.0 0.00 0.25 0.25 82 1011.2
20260505195019 52 341 4.0 7.0 0.00 0.25 0.25 81 1011.3
20260505194019 52 285 3.0 6.0 0.00 0.25 0.25 80 1011.3
20260505193059 53 356 4.0 7.0 0.00 0.25 0.25 79 1011.1
20260505192019 53 310 3.0 6.0 0.00 0.25 0.25 77 1010.8
20260505191019 53 354 5.0 9.0 0.00 0.25 0.25 75 1010.8
20260505190020 53 297 4.0 7.0 0.00 0.26 0.25 77 1010.7
20260505185020 53 304 4.0 6.0 0.00 0.27 0.25 77 1010.9
20260505184020 53 298 5.0 6.0 0.00 0.27 0.25 77 1011.3
20260505183101 53 349 4.0 7.0 0.00 0.35 0.25 78 1011.1
20260505182020 53 302 4.0 7.0 0.00 0.37 0.25 78 1011.4
20260505181020 54 355 6.0 8.0 0.00 0.37 0.25 78 1011.5
20260505180020 54 283 5.0 7.0 0.01 0.37 0.25 78 1011.4
20260505175101 54 302 6.0 9.0 0.01 0.37 0.25 76 1011.5
20260505174021 54 240 5.0 8.0 0.01 0.37 0.25 77 1011.3
20260505173021 55 250 5.0 8.0 0.01 0.37 0.25 77 1011.4
20260505172021 55 239 5.0 7.0 0.01 0.37 0.25 77 1011.2
20260505171021 56 263 5.0 7.0 0.01 0.37 0.24 74 1010.8
20260505170021 56 1 5.0 7.0 0.00 0.36 0.24 73 1010.6
20260505165101 56 268 4.0 6.0 0.00 0.36 0.24 71 1010.7
20260505164021 56 341 5.0 8.0 0.00 0.36 0.24 71 1010.9
20260505163101 56 25 5.0 7.0 0.00 0.36 0.24 71 1010.7
20260505162027 56 235 6.0 8.0 0.00 0.36 0.24 71 1010.8
20260505161022 55 239 6.0 9.0 0.00 0.36 0.24 70 1010.9
20260505153102 54 18 4.0 9.0 0.00 0.36 0.24 75 1010.3
20260505152022 53 321 6.0 9.0 0.00 0.36 0.24 76 1009.9
20260505151022 53 282 5.0 8.0 0.00 0.36 0.24 79 1009.9
20260505125021 51 277 2.0 3.0 0.05 0.31 0.18 88 1010.8
20260505124020 51 12 3.0 4.0 0.01 0.27 0.15 87 1010.6
20260505123024 52 348 3.0 7.0 0.02 0.27 0.15 87 1010.5
20260505122024 53 317 3.0 5.0 0.02 0.27 0.15 87 1010.3
20260505121101 53 310 3.0 4.0 0.02 0.27 0.15 87 1010.2
20260505120018 54 13 3.0 5.0 0.02 0.27 0.14 86 1010.0
20260505115018 54 359 4.0 5.0 0.01 0.27 0.14 85 1009.7
20260505114018 55 339 3.0 5.0 0.01 0.26 0.13 84 1009.2
20260505113018 55 339 3.0 5.0 0.00 0.25 0.13 84 1008.7
20260505112021 56 329 3.0 5.0 0.00 0.25 0.13 86 1008.3
20260505111018 57 322 4.0 7.0 0.00 0.25 0.13 90 1008.0
20260505102019 60 301 6.0 8.0 0.10 0.25 0.13 89 1007.8
20260505101019 60 264 5.0 7.0 0.10 0.25 0.13 88 1007.7
20260505100019 61 305 3.0 6.0 0.10 0.25 0.13 86 1007.6
20260505095019 62 348 3.0 5.0 0.03 0.17 0.05 86 1007.3
20260505094022 62 341 2.0 3.0 0.00 0.15 0.02 87 1006.9
20260505093059 62 298 2.0 3.0 0.00 0.15 0.02 85 1006.6
20260505092019 63 309 2.0 3.0 0.00 0.15 0.02 83 1006.7
20260505091020 63 291 1.0 2.0 0.00 0.15 0.02 79 1006.6
20260505090019 63 284 1.0 2.0 0.02 0.15 0.02 79 1006.6
20260505085057 63 320 0.0 2.0 0.02 0.15 0.02 79 1006.5
20260505084017 64 22 1.0 2.0 0.02 0.15 0.02 79 1006.6
20260505083100 65 298 1.0 2.0 0.02 0.15 0.02 76 1006.6
20260505082020 66 267 1.0 2.0 0.02 0.15 0.02 71 1006.7
20260505081020 67 342 0.0 1.0 0.02 0.15 0.02 65 1006.8
20260505080057 67 296 0.0 1.0 0.00 0.13 0.00 61 1006.9
20260505075018 68 291 0.0 1.0 0.00 0.13 0.00 59 1006.8
20260505074018 69 296 1.0 2.0 0.00 0.13 0.00 59 1006.8
20260505073018 69 285 1.0 3.0 0.00 0.13 0.00 58 1006.9
20260505072018 70 279 1.0 3.0 0.00 0.13 0.00 59 1007.0
20260505071058 70 295 2.0 5.0 0.00 0.13 0.00 60 1007.2
20260505070018 70 266 2.0 6.0 0.00 0.13 0.00 62 1007.2
20260505065058 70 273 3.0 4.0 0.00 0.13 0.00 62 1006.1
20260505064018 70 274 2.0 3.0 0.00 0.13 0.00 62 1005.7
20260505063019 70 273 2.0 5.0 0.00 0.13 0.00 62 1005.7
20260505062018 70 271 2.0 4.0 0.00 0.13 0.00 61 1005.7
20260505061139 70 270 2.0 4.0 0.00 0.13 0.00 62 1005.7
20260505060059 70 268 2.0 4.0 0.00 0.13 0.00 61 1005.6
20260505055019 70 271 2.0 3.0 0.00 0.13 0.00 61 1005.4
20260505054019 70 274 2.0 6.0 0.00 0.13 0.00 61 1005.3
20260505053019 70 269 2.0 4.0 0.00 0.13 0.00 61 1005.1
20260505052019 70 265 2.0 6.0 0.00 0.13 0.00 61 1004.9
20260505051020 70 269 2.0 5.0 0.00 0.13 0.00 61 1004.8
20260505041017 71 274 2.0 4.0 0.00 0.13 0.00 59 1004.8
20260505040018 72 272 2.0 4.0 0.00 0.13 0.00 58 1004.9
20260505035101 72 272 2.0 4.0 0.00 0.13 0.00 59 1005.0
20260505034020 72 267 2.0 5.0 0.00 0.13 0.00 59 1005.0
20260505033058 72 273 2.0 7.0 0.00 0.13 0.00 58 1005.1
20260505032138 72 273 2.0 4.0 0.00 0.13 0.00 58 1005.0
20260505031018 72 272 2.0 4.0 0.00 0.13 0.00 58 1005.0
20260505030138 72 273 2.0 4.0 0.00 0.13 0.00 59 1004.8
20260505025018 72 278 2.0 3.0 0.00 0.13 0.00 59 1004.8
20260505024018 73 288 2.0 4.0 0.00 0.13 0.00 59 1004.5
20260505023018 73 272 2.0 4.0 0.00 0.13 0.00 58 1004.4
20260505022019 73 267 2.0 3.0 0.00 0.13 0.00 57 1004.2
20260505021019 73 277 2.0 2.0 0.00 0.13 0.00 57 1004.0
20260505020019 73 277 2.0 3.0 0.00 0.13 0.00 56 1003.9
20260505015059 73 275 2.0 3.0 0.00 0.13 0.00 56 1003.7
20260505014019 74 270 2.0 4.0 0.00 0.13 0.00 55 1003.6
20260505013019 74 275 2.0 4.0 0.00 0.13 0.00 55 1003.5
20260505012020 74 274 2.0 4.0 0.00 0.13 0.00 55 1003.5
20260505011017 75 274 2.0 4.0 0.00 0.13 0.00 55 1003.4
20260505010019 75 275 2.0 3.0 0.00 0.13 0.00 55 1003.2
20260505005019 76 274 2.0 3.0 0.00 0.13 0.00 55 1003.1
20260505004100 76 275 1.0 3.0 0.00 0.13 0.00 53 1002.9
20260505003017 77 254 2.0 5.0 0.00 0.13 0.00 53 1002.8
20260505002017 78 274 2.0 3.0 0.00 0.13 0.00 52 1002.8